Temperature
-9 -10 -11 -11 -12 -12 -12 -12 -12 -13 -13 -13 -13 -13 -13 -12 -11 -11 -10 -9 -8 -8 -7 -7 -7 -6 -5 -4 -3 -2 -2 -1 -1 0 2 5 6 7 8 8 9 9 10
-10 -10 -11 -11 -12 -12 -13 -13 -13 -13 -13 -13 -13 -13 -13 -12 -12 -11 -10 -9 -8 -8 -8 -7 -7 -6 -5 -4 -3 -2 -1 -1 -0 0 2 3 5 6 7 8 8 9 9
-10 -10 -11 -12 -12 -13 -13 -13 -13 -13 -13 -13 -13 -14 -13 -13 -12 -11 -10 -9 -8 -8 -8 -7 -7 -6 -5 -4 -3 -2 -1 -0 0 1 2 3 4 5 6 7 8 8 9
-10 -11 -11 -12 -12 -13 -13 -14 -14 -14 -14 -14 -14 -13 -13 -13 -12 -11 -9 -8 -8 -8 -8 -7 -7 -7 -6 -4 -3 -2 -1 -1 -0 0 1 2 3 4 5 6 7 7 8
-10 -11 -12 -12 -13 -13 -13 -14 -14 -14 -14 -14 -14 -13 -13 -13 -12 -10 -9 -8 -8 -8 -8 -8 -8 -7 -7 -5 -4 -3 -2 -1 -1 -0 1 2 3 3 4 5 6 7 7
-11 -11 -12 -12 -13 -13 -13 -14 -14 -14 -14 -14 -14 -13 -13 -13 -11 -9 -8 -8 -8 -8 -8 -9 -8 -8 -8 -7 -6 -5 -4 -3 -2 -1 0 1 2 2 3 4 5 6 7
-11 -12 -12 -12 -13 -13 -13 -14 -14 -14 -14 -14 -14 -13 -13 -12 -11 -9 -9 -9 -9 -9 -9 -9 -9 -9 -8 -8 -7 -6 -5 -5 -4 -3 -1 -1 0 1 2 3 4 5 6
-11 -12 -12 -12 -13 -13 -13 -13 -14 -14 -14 -13 -13 -13 -13 -12 -11 -9 -9 -9 -9 -9 -9 -9 -9 -9 -9 -9 -8 -7 -7 -6 -6 -4 -3 -3 -2 -0 1 3 4 5 6
-11 -11 -12 -13 -13 -13 -13 -13 -13 -13 -13 -13 -13 -13 -13 -12 -11 -10 -10 -10 -10 -10 -10 -9 -10 -10 -9 -10 -9 -9 -7 -7 -6 -6 -5 -4 -3 -1 0 2 3 4 5
-11 -11 -12 -13 -13 -13 -13 -13 -13 -13 -13 -13 -13 -13 -13 -12 -11 -11 -11 -11 -11 -11 -10 -10 -10 -10 -10 -10 -10 -10 -9 -8 -7 -5 -4 -3 -2 -1 -0 1 2 3 3
-11 -11 -12 -12 -13 -13 -13 -13 -13 -13 -13 -13 -13 -13 -13 -12 -12 -11 -11 -11 -12 -12 -12 -11 -11 -11 -11 -11 -11 -11 -11 -9 -8 -7 -6 -5 -4 -3 -2 -1 0 1 2
-11 -11 -12 -12 -13 -13 -13 -13 -13 -13 -13 -13 -13 -13 -13 -13 -12 -12 -12 -12 -12 -12 -12 -12 -12 -12 -11 -11 -11 -11 -11 -10 -9 -9 -8 -8 -7 -7 -6 -4 -2 -1 0
-10 -11 -11 -12 -12 -13 -13 -13 -13 -13 -13 -14 -13 -13 -13 -13 -13 -13 -13 -13 -13 -13 -13 -13 -13 -12 -12 -11 -12 -11 -11 -11 -11 -11 -11 -10 -10 -8 -7 -6 -4 -2 -1
-10 -11 -11 -12 -12 -13 -13 -13 -13 -13 -13 -13 -14 -13 -13 -13 -13 -13 -14 -14 -14 -14 -13 -13 -13 -13 -13 -13 -12 -12 -12 -12 -12 -12 -12 -11 -10 -9 -8 -7 -6 -4 -2
-10 -11 -11 -12 -13 -13 -13 -13 -13 -13 -13 -13 -14 -13 -13 -13 -13 -13 -13 -13 -14 -14 -14 -14 -14 -13 -14 -14 -14 -14 -13 -13 -12 -12 -11 -11 -11 -11 -10 -9 -8 -6 -5
-10 -11 -11 -12 -13 -13 -13 -13 -13 -13 -13 -14 -14 -13 -13 -13 -13 -13 -13 -13 -13 -14 -14 -14 -15 -15 -15 -15 -15 -15 -15 -14 -14 -13 -13 -12 -11 -11 -11 -10 -10 -9 -8
-10 -10 -11 -11 -12 -13 -13 -13 -14 -14 -14 -14 -14 -14 -14 -14 -14 -14 -14 -14 -14 -14 -14 -15 -15 -15 -15 -15 -15 -15 -15 -15 -15 -14 -14 -13 -12 -12 -11 -10 -10 -10 -10
-9 -10 -10 -11 -12 -12 -13 -13 -13 -14 -14 -14 -14 -14 -14 -14 -14 -14 -14 -14 -14 -14 -14 -15 -15 -15 -15 -15 -15 -15 -15 -15 -15 -15 -14 -14 -13 -13 -12 -12 -11 -11 -10
-9 -9 -9 -10 -11 -12 -12 -12 -13 -13 -14 -14 -14 -14 -14 -14 -14 -14 -14 -14 -14 -14 -14 -14 -15 -15 -15 -15 -15 -15 -15 -15 -15 -15 -15 -15 -14 -14 -13 -13 -13 -12 -11
-8 -9 -9 -9 -10 -11 -12 -12 -12 -13 -13 -14 -14 -14 -14 -14 -14 -14 -14 -14 -14 -14 -14 -14 -14 -15 -15 -15 -15 -15 -15 -15 -15 -15 -15 -15 -14 -14 -14 -14 -14 -13 -13
-8 -8 -9 -9 -9 -10 -11 -11 -11 -12 -12 -13 -13 -13 -13 -14 -14 -14 -14 -14 -14 -14 -14 -14 -14 -14 -15 -15 -15 -15 -15 -15 -15 -15 -15 -14 -14 -14 -14 -14 -14 -14 -14
-8 -8 -8 -9 -9 -9 -10 -10 -11 -11 -11 -11 -12 -12 -13 -13 -13 -13 -14 -14 -14 -14 -14 -14 -14 -14 -14 -14 -14 -14 -14 -14 -14 -14 -14 -14 -14 -14 -14 -14 -14 -14 -14
-8 -8 -8 -8 -9 -9 -9 -10 -10 -10 -10 -10 -11 -11 -11 -12 -12 -13 -13 -13 -13 -14 -14 -14 -14 -14 -14 -14 -14 -14 -14 -14 -14 -14 -14 -14 -14 -14 -14 -14 -14 -14 -14
-7 -8 -8 -8 -8 -9 -9 -9 -10 -10 -10 -10 -10 -10 -10 -10 -11 -11 -12 -12 -13 -13 -13 -13 -13 -13 -13 -13 -13 -13 -13 -13 -13 -13 -13 -13 -14 -14 -14 -14 -14 -14 -14
-7 -7 -7 -7 -8 -8 -9 -9 -10 -10 -10 -10 -10 -10 -10 -10 -10 -10 -10 -11 -11 -12 -12 -13 -13 -13 -13 -13 -13 -13 -13 -13 -13 -13 -13 -13 -13 -13 -13 -14 -14 -14 -14
-6 -6 -7 -7 -7 -8 -8 -9 -9 -10 -11 -11 -11 -11 -11 -10 -10 -10 -10 -10 -10 -10 -11 -11 -12 -12 -12 -12 -12 -12 -12 -12 -13 -13 -13 -13 -13 -13 -13 -13 -13 -13 -14
Wind_Speed
11 11 11 10 9 11 9 10 11 13 16 13 14 15 17 17 15 16 17 19 18 16 13 13 15 15 13 12 12 13 14 14 16 14 11 10 9 7 4 2 4 6 9
10 11 11 11 10 11 12 12 16 14 14 15 16 16 18 18 17 17 18 21 18 14 13 14 15 13 15 12 10 11 11 12 12 13 10 8 9 6 5 3 3 5 5
10 11 11 11 12 12 13 13 17 14 12 14 13 15 17 18 18 17 16 20 16 12 12 14 15 15 14 12 11 9 8 8 7 8 8 6 5 4 3 3 4 4 4
11 11 11 11 12 13 13 14 15 14 12 11 11 14 16 17 18 16 17 18 12 10 10 13 14 14 15 14 10 7 5 4 4 5 6 5 4 4 3 3 4 4 5
10 10 10 10 11 12 14 14 13 13 15 12 13 15 16 16 15 18 18 11 8 8 10 12 14 18 21 18 13 12 9 4 3 3 4 3 3 3 3 4 5 4 4
10 10 10 10 11 12 14 14 14 13 12 12 14 16 17 17 26 30 16 8 8 9 10 11 14 16 20 24 25 25 23 15 9 5 3 2 2 2 2 3 5 6 6
10 9 10 10 12 13 15 14 13 11 11 12 13 14 15 19 29 27 19 12 11 11 10 11 13 16 19 16 21 25 24 27 23 12 9 8 5 5 4 3 5 7 4
10 10 10 11 11 11 11 12 11 9 10 10 11 13 15 20 29 26 22 14 11 12 12 12 13 15 19 19 17 17 17 18 20 15 13 13 13 10 6 4 3 4 5
11 11 11 11 11 11 11 11 10 9 9 9 10 12 14 18 27 26 22 11 11 13 14 16 16 14 25 26 18 17 17 17 20 25 25 23 26 28 20 6 2 7 10
13 13 12 11 11 11 11 10 9 9 10 11 11 11 13 13 24 26 23 11 12 11 11 14 22 23 26 26 17 16 17 16 17 18 20 23 21 23 28 17 9 1 8
12 13 12 11 11 11 10 9 10 10 11 11 12 11 11 15 21 26 24 11 11 10 10 10 13 25 27 27 22 16 20 17 14 15 15 16 16 16 17 17 15 8 4
12 13 12 11 12 13 10 9 9 9 9 9 9 10 9 12 18 21 25 21 16 10 9 8 12 23 25 26 21 23 26 20 12 13 14 15 15 15 14 14 15 15 14
12 12 11 12 10 10 9 8 8 7 7 8 9 9 9 8 11 22 23 22 21 11 9 17 19 22 21 18 24 26 20 14 13 14 14 13 13 13 13 13 14 13 18
13 11 10 11 11 9 9 8 7 8 7 7 8 9 8 7 6 6 8 10 14 12 10 15 20 21 18 19 19 16 14 13 13 12 12 11 11 12 14 13 13 12 13
12 10 10 11 10 9 10 9 10 7 10 8 5 6 7 6 11 17 12 8 7 10 9 8 9 11 12 12 11 12 12 12 12 12 12 11 12 12 13 13 13 12 13
12 10 8 8 9 9 8 9 17 17 19 18 15 12 9 13 15 17 17 18 19 19 12 7 9 10 11 11 11 10 10 11 11 11 11 11 11 11 11 11 12 12 12
10 9 8 10 9 9 9 8 9 13 18 17 16 15 13 14 14 15 15 16 17 16 7 5 5 6 6 7 7 7 7 8 7 7 8 8 9 9 10 10 10 10 11
9 10 10 7 8 8 7 7 7 9 8 7 11 16 16 14 12 12 13 11 8 8 4 4 4 5 4 5 5 5 5 5 5 5 5 6 7 7 8 9 9 10 10
8 7 6 6 6 7 7 6 6 7 7 6 5 8 15 14 13 12 10 4 4 5 4 4 4 4 4 4 4 4 5 4 4 4 5 5 5 6 6 7 8 12 10
7 14 12 7 7 7 7 6 6 6 6 6 6 6 6 6 5 6 5 4 4 4 4 4 4 4 4 3 4 3 4 4 4 4 4 4 4 4 5 6 6 5 6
6 9 14 9 6 7 7 6 6 6 7 7 7 10 13 4 5 6 5 5 4 4 4 4 4 5 4 3 3 4 4 3 3 3 3 3 3 3 3 3 4 4 4
6 6 6 7 7 7 8 7 7 7 7 8 8 10 15 6 5 5 5 5 5 4 5 4 4 3 3 2 2 3 3 3 3 3 3 2 1 1 1 1 2 2 2
6 7 7 7 7 12 11 8 8 8 8 9 9 9 8 7 7 7 7 6 5 6 8 8 5 5 8 7 6 5 4 4 3 2 2 2 2 2 1 1 1 1 0
6 7 7 7 8 8 9 10 10 11 10 10 9 9 9 8 9 10 9 7 7 9 10 10 10 9 11 11 11 10 10 10 9 8 6 4 4 3 2 2 2 3 2
6 6 7 7 8 9 10 11 11 12 12 12 11 11 10 10 10 10 9 8 9 9 11 13 13 13 14 14 13 12 13 13 12 10 9 7 5 5 4 4 3 3 3
6 6 7 8 8 9 10 11 11 12 12 13 13 12 12 12 11 11 10 10 9 10 12 13 15 17 18 17 18 18 17 17 15 14 10 8 6 6 5 5 6 5 4
Wind_Direction
333 331 327 326 328 331 328 327 326 323 327 330 332 331 329 326 325 325 322 318 315 311 312 313 310 306 299 286 262 243 236 234 245 257 267 280 292 306 291 222 205 205 210
331 329 327 329 330 330 329 329 327 322 327 331 331 330 328 326 322 322 321 320 316 315 320 320 319 318 311 302 283 254 239 233 237 248 256 261 262 266 264 244 224 206 198
332 329 328 329 329 330 329 328 324 321 324 328 329 329 325 321 318 315 314 314 312 311 321 326 328 328 325 315 300 280 257 246 240 249 254 252 253 249 252 249 229 205 190
331 325 325 326 328 328 327 324 321 323 324 323 325 324 320 317 312 309 311 311 309 310 329 335 335 341 339 334 331 324 299 274 262 259 258 253 246 246 221 215 217 195 179
320 318 319 322 323 324 324 322 323 326 325 321 323 320 317 318 315 316 316 320 324 336 348 351 350 1 4 5 11 11 7 354 324 288 266 251 237 227 221 196 204 183 166
313 313 317 321 324 324 323 326 327 324 321 323 322 320 320 326 324 330 349 6 7 7 10 7 2 8 15 12 20 25 27 27 19 7 337 307 302 305 282 223 198 184 178
316 318 321 321 322 323 329 328 325 322 324 323 321 322 323 324 334 347 25 32 21 17 21 22 18 14 24 16 17 23 23 26 31 29 22 15 3 348 323 272 223 188 162
325 328 326 323 319 321 325 325 323 321 320 316 318 325 330 334 344 2 26 24 23 24 26 27 26 19 28 26 19 22 22 21 25 29 30 23 17 10 341 296 268 157 117
334 333 331 326 325 328 329 327 327 325 322 319 322 328 334 337 351 14 30 18 23 25 22 23 27 25 30 30 23 22 22 18 19 27 31 32 30 28 24 15 359 176 146
336 335 331 329 331 330 329 327 326 328 331 332 335 334 336 340 357 17 36 27 26 23 19 15 22 29 30 34 28 23 26 17 14 17 22 24 26 27 28 25 6 218 141
333 331 332 335 335 333 331 330 332 338 340 341 343 342 344 356 1 12 30 36 29 23 20 13 17 27 29 34 35 31 31 26 19 21 23 22 23 24 25 24 22 23 67
334 334 337 339 339 342 336 337 338 343 346 348 349 351 355 359 6 11 18 26 35 23 11 6 19 28 28 30 34 32 31 29 25 26 29 26 22 18 16 20 26 35 41
337 336 338 338 335 337 340 341 341 343 350 358 356 356 359 3 7 21 20 20 22 23 11 19 24 28 28 27 29 31 29 27 26 29 29 27 22 18 17 20 23 33 42
335 334 341 340 339 341 345 345 346 345 357 6 358 352 353 358 357 12 13 15 18 22 18 19 24 26 29 27 28 27 25 28 29 26 24 23 23 26 27 25 28 29 45
333 335 345 346 339 340 346 350 354 354 11 12 348 348 360 3 22 28 26 16 19 36 28 19 19 20 22 21 23 25 24 24 27 24 22 23 27 32 34 33 35 39 46
338 343 348 346 343 343 344 349 0 5 11 13 12 15 8 18 24 22 19 21 30 33 31 23 25 22 20 18 19 20 23 25 24 26 25 24 26 30 35 37 43 45 47
332 341 350 347 340 343 350 353 352 355 5 9 8 8 8 7 10 10 12 18 21 26 25 12 14 14 13 11 10 10 15 19 17 22 25 21 24 30 39 42 43 49 51
331 344 350 333 333 336 343 350 350 347 347 347 355 356 358 357 356 358 6 13 4 11 5 5 4 3 5 6 4 1 360 10 11 15 20 19 24 32 40 44 46 51 55
334 334 337 331 331 333 336 340 340 339 337 333 329 342 351 352 353 354 2 4 339 343 348 351 351 355 356 357 356 357 354 357 7 14 25 23 23 32 38 38 45 59 60
334 343 350 342 333 332 330 329 329 327 324 322 321 317 321 338 338 337 338 324 326 328 332 334 333 337 343 349 346 348 347 349 4 17 18 25 26 31 38 44 45 52 55
324 329 343 338 326 326 326 324 321 319 319 319 315 319 336 338 317 311 312 312 310 308 307 307 310 316 321 331 342 343 341 337 348 355 359 15 30 32 31 39 42 53 60
320 319 323 321 326 331 334 326 320 316 316 316 314 317 327 323 296 292 293 293 289 278 278 271 277 274 276 268 274 294 309 316 325 337 342 344 346 355 13 28 39 49 64
325 325 327 327 328 339 342 330 326 320 315 312 309 311 310 306 301 296 290 283 272 274 279 276 266 267 273 271 265 253 252 262 263 254 279 299 306 295 265 233 224 209 188
329 328 330 331 335 339 338 337 336 333 328 320 314 307 300 294 291 289 287 279 274 271 267 266 265 263 266 267 265 260 257 261 263 254 242 232 240 252 256 242 231 222 226
330 333 334 335 339 342 341 340 339 338 339 339 335 326 316 306 296 288 281 277 274 270 267 262 260 260 261 260 258 258 263 268 270 262 244 221 216 219 223 231 231 228 223
333 340 339 340 343 343 343 341 338 338 341 343 342 339 334 327 316 305 294 282 273 267 264 261 256 252 252 253 255 258 260 260 260 262 248 214 204 213 209 216 220 220 218
Height
1543 1537 1531 1526 1521 1515 1509 1503 1497 1492 1486 1481 1474 1468 1462 1456 1451 1446 1441 1436 1432 1428 1424 1419 1414 1409 1405 1402 1401 1400 1401 1403 1402 1400 1402 1404 1408 1411 1414 1419 1423 1426 1429
1541 1535 1529 1523 1518 1512 1506 1500 1494 1489 1484 1478 1472 1465 1459 1453 1448 1442 1437 1432 1428 1425 1420 1415 1410 1404 1399 1395 1393 1392 1392 1393 1395 1396 1396 1399 1402 1406 1409 1413 1417 1420 1423
1539 1532 1526 1520 1514 1508 1502 1496 1491 1486 1481 1476 1469 1463 1456 1450 1444 1439 1434 1429 1426 1422 1417 1412 1407 1401 1395 1390 1387 1385 1384 1386 1387 1389 1390 1393 1396 1400 1403 1407 1411 1415 1418
1536 1530 1524 1518 1512 1506 1500 1494 1488 1484 1478 1473 1467 1461 1454 1447 1442 1436 1431 1426 1423 1420 1416 1411 1405 1400 1393 1387 1383 1380 1379 1380 1381 1383 1385 1387 1390 1394 1398 1402 1406 1409 1413
1534 1528 1522 1516 1510 1504 1497 1491 1486 1481 1476 1471 1465 1458 1452 1445 1439 1433 1428 1424 1421 1418 1414 1410 1405 1400 1393 1387 1382 1378 1376 1376 1376 1378 1380 1382 1385 1389 1392 1396 1401 1405 1409
1532 1526 1521 1514 1508 1502 1496 1490 1485 1479 1474 1469 1463 1456 1450 1444 1437 1430 1425 1422 1420 1417 1414 1410 1405 1399 1393 1387 1382 1377 1375 1373 1373 1374 1375 1378 1381 1384 1388 1392 1396 1400 1404
1531 1525 1519 1513 1507 1501 1495 1490 1484 1478 1473 1467 1461 1456 1449 1442 1436 1430 1425 1423 1421 1418 1415 1411 1406 1401 1395 1388 1383 1378 1375 1374 1373 1373 1373 1375 1377 1380 1382 1386 1390 1394 1398
1530 1523 1517 1511 1506 1500 1495 1489 1484 1478 1473 1467 1462 1456 1450 1443 1438 1432 1428 1425 1423 1420 1417 1414 1409 1404 1399 1393 1387 1382 1378 1375 1374 1372 1372 1373 1374 1375 1378 1381 1385 1389 1393
1528 1521 1516 1510 1505 1500 1494 1489 1484 1479 1473 1468 1463 1457 1452 1446 1441 1436 1431 1428 1426 1423 1420 1417 1413 1408 1404 1397 1391 1386 1382 1379 1376 1374 1372 1371 1371 1372 1374 1378 1382 1384 1386
1527 1521 1516 1511 1506 1500 1495 1490 1485 1480 1474 1469 1464 1459 1454 1450 1445 1440 1435 1432 1429 1427 1424 1420 1418 1414 1409 1403 1397 1392 1387 1383 1380 1376 1373 1371 1370 1371 1372 1375 1378 1380 1380
1528 1522 1516 1511 1506 1501 1496 1491 1486 1481 1475 1470 1465 1461 1457 1453 1449 1445 1441 1437 1434 1431 1428 1425 1422 1419 1414 1409 1404 1399 1396 1391 1386 1382 1378 1375 1373 1372 1373 1374 1377 1378 1379
1528 1522 1516 1511 1506 1502 1496 1491 1486 1481 1476 1471 1467 1463 1460 1456 1453 1449 1446 1442 1438 1435 1433 1430 1427 1423 1418 1414 1410 1407 1402 1397 1392 1388 1385 1382 1379 1378 1377 1377 1377 1378 1379
1528 1522 1517 1511 1507 1502 1497 1492 1487 1482 1478 1474 1469 1466 1463 1460 1456 1453 1449 1445 1442 1439 1437 1435 1431 1427 1422 1418 1415 1411 1407 1403 1400 1396 1393 1392 1390 1388 1385 1383 1381 1382 1382
1528 1523 1518 1512 1507 1503 1499 1494 1489 1484 1480 1476 1472 1469 1466 1463 1460 1456 1452 1449 1445 1442 1439 1436 1433 1430 1426 1423 1419 1416 1413 1411 1408 1405 1403 1401 1399 1395 1392 1390 1388 1387 1387
1529 1524 1519 1514 1509 1505 1500 1496 1491 1487 1483 1479 1475 1472 1469 1466 1464 1461 1457 1454 1450 1447 1443 1440 1436 1433 1430 1427 1424 1422 1419 1416 1414 1412 1410 1408 1405 1402 1400 1398 1397 1396 1395
1530 1525 1520 1515 1510 1507 1502 1497 1493 1490 1485 1481 1478 1475 1472 1470 1467 1464 1461 1458 1455 1452 1447 1444 1441 1438 1436 1433 1430 1428 1425 1422 1420 1418 1416 1414 1412 1410 1409 1408 1407 1406 1406
1532 1527 1522 1517 1512 1508 1504 1499 1493 1490 1486 1482 1479 1476 1473 1471 1468 1466 1463 1461 1458 1455 1451 1448 1446 1443 1441 1438 1435 1433 1430 1428 1426 1423 1422 1420 1418 1417 1416 1416 1415 1415 1415
1534 1529 1524 1519 1514 1510 1506 1501 1496 1491 1487 1483 1479 1476 1474 1471 1469 1467 1465 1462 1459 1456 1454 1451 1449 1446 1443 1441 1438 1436 1433 1432 1430 1427 1426 1424 1423 1422 1421 1421 1421 1422 1423
1535 1530 1526 1521 1516 1512 1508 1503 1498 1493 1489 1484 1480 1476 1473 1470 1468 1466 1464 1462 1459 1457 1455 1453 1450 1448 1445 1442 1440 1438 1435 1434 1432 1430 1429 1428 1427 1426 1425 1425 1425 1427 1427
1537 1532 1528 1523 1518 1513 1509 1504 1499 1494 1489 1485 1481 1477 1473 1470 1467 1465 1463 1461 1459 1457 1455 1453 1451 1448 1446 1443 1441 1439 1437 1435 1434 1433 1431 1431 1430 1429 1429 1429 1429 1430 1431
1537 1533 1529 1524 1519 1514 1510 1506 1501 1496 1491 1486 1481 1477 1474 1470 1466 1463 1461 1459 1457 1455 1453 1451 1450 1448 1446 1444 1442 1440 1438 1437 1436 1434 1433 1433 1432 1432 1432 1432 1432 1432 1433
1538 1534 1529 1525 1520 1515 1511 1507 1502 1497 1492 1487 1481 1477 1473 1469 1465 1462 1459 1456 1454 1452 1450 1449 1447 1446 1445 1443 1442 1440 1439 1438 1437 1436 1435 1434 1434 1433 1433 1433 1433 1434 1435
1538 1534 1530 1525 1521 1516 1512 1507 1503 1498 1493 1488 1482 1477 1472 1467 1463 1459 1456 1453 1450 1448 1447 1445 1444 1443 1442 1441 1440 1439 1438 1437 1437 1436 1435 1434 1433 1433 1433 1433 1433 1434 1434
1538 1534 1530 1525 1521 1516 1511 1507 1503 1498 1494 1489 1484 1478 1473 1467 1462 1457 1453 1449 1446 1444 1442 1440 1439 1438 1437 1437 1437 1436 1436 1436 1435 1434 1434 1433 1432 1432 1432 1432 1432 1432 1433
1538 1534 1530 1525 1521 1516 1511 1507 1503 1498 1494 1490 1485 1480 1474 1468 1462 1456 1451 1447 1443 1439 1437 1435 1434 1433 1432 1432 1431 1432 1432 1432 1432 1432 1432 1432 1431 1431 1431 1431 1430 1431 1431
1538 1534 1530 1526 1521 1516 1511 1507 1503 1498 1494 1490 1486 1480 1475 1469 1463 1457 1451 1445 1440 1436 1432 1429 1427 1426 1425 1425 1425 1425 1426 1427 1428 1428 1429 1429 1429 1429 1429 1429 1429 1429 1429